Location: Newark
(43.0000°N, 1.6781°W)
Time: 11:18:49
(UTC+00:00)

Explorer 7 - Pass Details

Date: 20 April 2021
Orbit: 484 x 677 km, 50.3° (Epoch: 07 May)

Event Time Altitude Azimuth Distance (km) Brightness Sun altitude
Rises 18:52:03 0° 207° (SSW) 2,580 10.4 -0.3°
Reaches altitude 10° 18:54:24 10° 194° (SSW) 1,725 9.4 -0.7°
Maximum altitude 18:57:43 27° 136° (SE) 1,041 7.8 -1.3°
Drops below altitude 10° 19:01:13 10° 78° (ENE) 1,821 9.0 -1.9°
Sets 19:03:46 0° 66° (ENE) 2,757 9.9 -2.3°
